Weather in Chimkent

Uzbekistan     40°29′19″N   71°39′07″E
temp.,
°C
wind,
m/s
gust,
m/s
humid.,
%
clouds,
%
prec.,
mm/h
press.,
hPa
HPBL,
m
11 may, tue
tue1123:00+24wsw61242100 0.1 1008602
02:00+21wnw4851100 0.0 1010398
05:00+20w81251100 0.0 1011657
08:00+21w81251100 0.0 1013983
11:00+24w7839100 0.2 10131265
14:00+28wnw6930100 0.0 10121997
17:00+29w572093 0.0 10122774
20:00+24w38290 0.0 1013215
12 may, wed
wed1223:00+22wsw48281 0.0 1013202
02:00+19sw48380 0.0 1012168
05:00+17wsw47570 0.0 1013139
08:00+22wnw45430 0.0 1013646
11:00+27nw34310 0.0 10122002
14:00+30w45130 0.0 10102651
17:00+30w56110 0.0 10092611
20:00+25w611230 0.0 1010371
13 may, thu
thu1323:00+18ne37544 0.0 1013230
02:00+17nne23540 0.0 101138
05:00+16se11590 0.0 101111
08:00+21nnw22425 0.0 1011477
11:00+26nw21271 0.0 10101521
14:00+29wnw21200 0.0 10082694
17:00+30wsw211671 0.0 10072989
20:00+26w352194 0.0 1008112
14 may, fri
fri1423:00+23wsw2332100 0.0 100967
02:00+22ese1133100 0.0 100911
05:00+20ne1137100 0.0 101011
08:00+23wnw4530100 0.0 1011603
11:00+28w432396 0.0 10101392
14:00+30nw221817 0.0 10082899
17:00+31wsw221539 0.0 10073438
20:00+25ssw462912 0.0 1009118
15 may, sat
sat1523:00+23s223093 0.0 100920
02:00+22ese223092 0.0 100911
05:00+20se013450 0.0 100911
08:00+25nw34280 0.0 1010609
11:00+29nnw32220 0.0 10081654
14:00+32nnw21170 0.0 10053019
17:00+32sw231551 0.0 10043458
20:00+26sse23254 0.0 100545